Location: Dammartin
(48.9032°N, 1.6195°E)
Time: 18:58:14
(UTC+00:00)

BlueWalker 3 - Pass Details

Date: 18 April 2024
Orbit: 482 x 494 km, 53.2° (Epoch: 22 May)

Event Time Altitude Azimuth Distance (km) Brightness Sun altitude
Rises 20:33:33 0° 233° (SW) 2,565 5.7 -15.6°
Reaches altitude 10° 20:35:43 10° 231° (SW) 1,688 4.7 -15.9°
Maximum altitude 20:39:30 65° 149° (SSE) 548 1.8 -16.4°
Enters shadow 20:42:22 17° 70° (ENE) 1,327 3.8 -16.7°
